Time,TemperatureF,DewpointF,PressureIn,WindDirection,WindDirectionDegrees,WindSpeedMPH,WindSpeedGustMPH,Humidity,HourlyPrecipIn,Conditions,Clouds,dailyrainin,SoftwareType,DateUTC
2013-04-17 00:00:00,29.1,24.6,30.31,NE,40,0.0,4.0,83,0.00,,---,0.00,VWS V14.01,2013-04-17 05:00:00,
2013-04-17 00:05:00,29.1,24.3,30.30,NE,38,1.0,2.0,82,0.00,,---,0.00,VWS V14.01,2013-04-17 05:05:00,
2013-04-17 00:10:00,29.1,24.3,30.30,NE,35,0.0,2.0,82,0.00,,---,0.00,VWS V14.01,2013-04-17 05:10:00,
2013-04-17 00:15:00,29.0,24.5,30.30,NNE,31,0.0,1.0,83,0.00,,---,0.00,VWS V14.01,2013-04-17 05:15:00,
2013-04-17 00:20:00,28.8,24.6,30.30,NE,37,3.0,5.0,84,0.00,,---,0.00,VWS V14.01,2013-04-17 05:20:00,
2013-04-17 00:25:00,28.8,24.3,30.30,NE,40,0.0,5.0,83,0.00,,---,0.00,VWS V14.01,2013-04-17 05:25:00,
2013-04-17 00:30:00,29.1,24.6,30.30,NE,41,0.0,5.0,83,0.00,,---,0.00,VWS V14.01,2013-04-17 05:30:00,
2013-04-17 00:35:00,29.4,24.6,30.31,NE,42,0.0,0.0,82,0.00,,---,0.00,VWS V14.01,2013-04-17 05:35:00,
2013-04-17 00:40:00,29.7,24.6,30.31,NE,49,0.0,0.0,81,0.00,,---,0.00,VWS V14.01,2013-04-17 05:40:00,
2013-04-17 00:45:00,30.0,24.6,30.31,NE,55,0.0,0.0,80,0.00,,---,0.00,VWS V14.01,2013-04-17 05:45:00,
2013-04-17 00:50:00,29.8,24.4,30.30,NE,55,0.0,0.0,80,0.00,,---,0.00,VWS V14.01,2013-04-17 05:50:00,
2013-04-17 00:55:00,29.8,24.4,30.30,NE,55,0.0,0.0,80,0.00,,---,0.00,VWS V14.01,2013-04-17 05:55:00,
2013-04-17 01:00:00,29.8,24.1,30.30,NE,56,0.0,0.0,79,0.00,,---,0.00,VWS V14.01,2013-04-17 06:00:00,
2013-04-17 01:04:00,30.0,24.0,30.31,ENE,58,0.0,0.0,78,0.00,,---,0.00,VWS V14.01,2013-04-17 06:04:00,
2013-04-17 01:09:00,30.1,24.1,30.31,ENE,65,0.0,0.0,78,0.00,,---,0.00,VWS V14.01,2013-04-17 06:09:00,
2013-04-17 01:14:00,30.3,24.3,30.31,ENE,66,0.0,0.0,78,0.00,,---,0.00,VWS V14.01,2013-04-17 06:14:00,
2013-04-17 01:19:00,30.3,24.3,30.30,ENE,59,1.0,3.0,78,0.00,,---,0.00,VWS V14.01,2013-04-17 06:19:00,
2013-04-17 01:24:00,30.6,24.6,30.30,ENE,65,2.0,3.0,78,0.00,,---,0.00,VWS V14.01,2013-04-17 06:24:00,
2013-04-17 01:29:00,30.6,24.6,30.30,ENE,65,0.0,3.0,78,0.00,,---,0.00,VWS V14.01,2013-04-17 06:29:00,
2013-04-17 01:34:00,30.7,24.4,30.31,NE,52,0.0,2.0,77,0.00,,---,0.00,VWS V14.01,2013-04-17 06:34:00,
2013-04-17 01:39:00,30.9,24.2,30.31,NE,56,0.0,2.0,76,0.00,,---,0.00,VWS V14.01,2013-04-17 06:39:00,
2013-04-17 01:44:00,30.9,24.2,30.31,ENE,61,0.0,0.0,76,0.00,,---,0.00,VWS V14.01,2013-04-17 06:44:00,
2013-04-17 01:49:00,30.9,24.5,30.31,NE,49,0.0,2.0,77,0.00,,---,0.00,VWS V14.01,2013-04-17 06:49:00,
2013-04-17 01:54:00,30.9,24.5,30.31,ENE,71,0.0,2.0,77,0.00,,---,0.00,VWS V14.01,2013-04-17 06:54:00,
2013-04-17 01:59:00,30.7,24.7,30.31,ENE,72,0.0,2.0,78,0.00,,---,0.00,VWS V14.01,2013-04-17 06:59:00,
2013-04-17 02:04:00,30.9,24.5,30.30,ENE,75,0.0,0.0,77,0.00,,---,0.00,VWS V14.01,2013-04-17 07:04:00,
2013-04-17 02:09:00,30.9,24.9,30.30,NNE,32,0.0,5.0,78,0.00,,---,0.00,VWS V14.01,2013-04-17 07:09:00,
2013-04-17 02:14:00,30.7,24.7,30.30,ENE,65,0.0,2.0,78,0.00,,---,0.00,VWS V14.01,2013-04-17 07:14:00,
2013-04-17 02:19:00,30.7,24.7,30.30,ENE,69,0.0,2.0,78,0.00,,---,0.00,VWS V14.01,2013-04-17 07:19:00,
2013-04-17 02:24:00,30.7,24.7,30.30,NE,55,0.0,3.0,78,0.00,,---,0.00,VWS V14.01,2013-04-17 07:24:00,
2013-04-17 02:29:00,30.9,24.5,30.30,ENE,62,0.0,3.0,77,0.00,,---,0.00,VWS V14.01,2013-04-17 07:29:00,
2013-04-17 02:34:00,30.9,24.9,30.29,NE,42,3.0,3.0,78,0.00,,---,0.00,VWS V14.01,2013-04-17 07:34:00,
2013-04-17 02:39:00,31.0,25.0,30.29,NNE,31,1.0,4.0,78,0.00,,---,0.00,VWS V14.01,2013-04-17 07:39:00,
2013-04-17 02:44:00,31.2,25.1,30.29,ENE,58,0.0,2.0,78,0.00,,---,0.00,VWS V14.01,2013-04-17 07:44:00,
2013-04-17 02:49:00,31.3,25.2,30.31,ENE,59,0.0,2.0,78,0.00,,---,0.00,VWS V14.01,2013-04-17 07:49:00,
2013-04-17 02:54:00,31.3,25.2,30.31,ENE,59,0.0,1.0,78,0.00,,---,0.00,VWS V14.01,2013-04-17 07:54:00,
2013-04-17 02:59:00,31.3,25.2,30.31,ENE,76,0.0,1.0,78,0.00,,---,0.00,VWS V14.01,2013-04-17 07:59:00,
2013-04-17 03:04:00,31.2,25.5,30.30,ENE,76,0.0,1.0,79,0.00,,---,0.00,VWS V14.01,2013-04-17 08:04:00,
2013-04-17 03:09:00,31.2,25.8,30.30,ENE,73,0.0,1.0,80,0.00,,---,0.00,VWS V14.01,2013-04-17 08:09:00,
2013-04-17 03:14:00,31.2,26.1,30.30,ENE,76,0.0,0.0,81,0.00,,---,0.00,VWS V14.01,2013-04-17 08:14:00,
2013-04-17 03:19:00,31.2,25.8,30.30,NE,38,1.0,3.0,80,0.00,,---,0.00,VWS V14.01,2013-04-17 08:19:00,
2013-04-17 03:24:00,31.2,25.5,30.30,NE,41,0.0,2.0,79,0.00,,---,0.00,VWS V14.01,2013-04-17 08:24:00,
2013-04-17 03:29:00,31.3,25.6,30.30,NE,40,0.0,2.0,79,0.00,,---,0.00,VWS V14.01,2013-04-17 08:29:00,
2013-04-17 03:34:00,31.3,25.2,30.31,NE,47,0.0,0.0,78,0.00,,---,0.00,VWS V14.01,2013-04-17 08:34:00,
2013-04-17 03:39:00,31.5,25.4,30.31,ENE,61,0.0,0.0,78,0.00,,---,0.00,VWS V14.01,2013-04-17 08:39:00,
2013-04-17 03:44:00,31.3,25.9,30.31,NE,37,1.0,2.0,80,0.00,,---,0.00,VWS V14.01,2013-04-17 08:44:00,
2013-04-17 03:49:00,31.3,25.6,30.31,NE,52,0.0,2.0,79,0.00,,---,0.00,VWS V14.01,2013-04-17 08:49:00,
2013-04-17 03:54:00,31.3,25.6,30.31,ENE,66,0.0,2.0,79,0.00,,---,0.00,VWS V14.01,2013-04-17 08:54:00,
2013-04-17 03:59:00,31.3,25.6,30.31,NE,51,0.0,2.0,79,0.00,,---,0.00,VWS V14.01,2013-04-17 08:59:00,
2013-04-17 04:04:00,31.3,25.6,30.30,ENE,73,1.0,2.0,79,0.00,,---,0.00,VWS V14.01,2013-04-17 09:04:00,
2013-04-17 04:09:00,31.3,25.6,30.30,ENE,59,0.0,3.0,79,0.00,,---,0.00,VWS V14.01,2013-04-17 09:09:00,
2013-04-17 04:14:00,31.5,26.0,30.30,ENE,75,0.0,2.0,80,0.00,,---,0.00,VWS V14.01,2013-04-17 09:14:00,
2013-04-17 04:19:00,31.5,25.8,30.27,ENE,76,1.0,3.0,79,0.00,,---,0.00,VWS V14.01,2013-04-17 09:19:00,
2013-04-17 04:24:00,31.5,25.8,30.27,ENE,75,1.0,2.0,79,0.00,,---,0.00,VWS V14.01,2013-04-17 09:24:00,
2013-04-17 04:29:00,31.5,25.8,30.27,East,82,0.0,2.0,79,0.00,,---,0.00,VWS V14.01,2013-04-17 09:29:00,
2013-04-17 04:34:00,31.5,25.8,30.27,ENE,76,2.0,2.0,79,0.00,,---,0.00,VWS V14.01,2013-04-17 09:34:00,
2013-04-17 04:39:00,31.5,25.8,30.27,East,80,0.0,2.0,79,0.00,,---,0.00,VWS V14.01,2013-04-17 09:39:00,
2013-04-17 04:44:00,31.5,26.0,30.27,ENE,78,0.0,2.0,80,0.00,,---,0.00,VWS V14.01,2013-04-17 09:44:00,
2013-04-17 04:49:00,31.5,26.0,30.26,East,80,1.0,2.0,80,0.00,,---,0.00,VWS V14.01,2013-04-17 09:49:00,
2013-04-17 04:54:00,31.5,26.0,30.26,East,89,0.0,2.0,80,0.00,,---,0.00,VWS V14.01,2013-04-17 09:54:00,
2013-04-17 04:59:00,31.5,26.0,30.26,East,82,0.0,2.0,80,0.00,,---,0.00,VWS V14.01,2013-04-17 09:59:00,
2013-04-17 05:04:00,31.6,26.5,30.26,ENE,71,1.0,3.0,81,0.00,,---,0.00,VWS V14.01,2013-04-17 10:04:00,
2013-04-17 05:09:00,31.6,26.1,30.26,East,79,1.0,3.0,80,0.00,,---,0.00,VWS V14.01,2013-04-17 10:09:00,
2013-04-17 05:14:00,31.8,26.4,30.26,ENE,71,1.0,3.0,80,0.00,,---,0.00,VWS V14.01,2013-04-17 10:14:00,
2013-04-17 05:19:00,31.8,26.0,30.25,ENE,78,4.0,4.0,79,0.00,,---,0.00,VWS V14.01,2013-04-17 10:19:00,
2013-04-17 05:24:00,31.9,25.8,30.25,East,86,3.0,3.0,78,0.00,,---,0.00,VWS V14.01,2013-04-17 10:24:00,
2013-04-17 05:29:00,32.1,26.0,30.25,East,90,2.0,3.0,78,0.00,,---,0.00,VWS V14.01,2013-04-17 10:29:00,
2013-04-17 05:34:00,32.2,26.1,30.24,East,79,1.0,5.0,78,0.00,,---,0.00,VWS V14.01,2013-04-17 10:34:00,
2013-04-17 05:39:00,32.2,26.1,30.24,East,83,2.0,5.0,78,0.00,,---,0.00,VWS V14.01,2013-04-17 10:39:00,
2013-04-17 05:44:00,32.2,25.8,30.24,ENE,65,3.0,3.0,77,0.00,,---,0.00,VWS V14.01,2013-04-17 10:44:00,
2013-04-17 05:49:00,32.2,25.8,30.23,ENE,76,3.0,6.0,77,0.00,,---,0.00,VWS V14.01,2013-04-17 10:49:00,
2013-04-17 05:54:00,32.4,26.0,30.23,ENE,72,1.0,3.0,77,0.00,,---,0.00,VWS V14.01,2013-04-17 10:54:00,
2013-04-17 05:59:00,32.4,26.3,30.23,East,83,0.0,3.0,78,0.00,,---,0.00,VWS V14.01,2013-04-17 10:59:00,
2013-04-17 06:04:00,32.4,26.3,30.22,East,89,2.0,5.0,78,0.00,,---,0.00,VWS V14.01,2013-04-17 11:04:00,
2013-04-17 06:09:00,32.4,26.3,30.22,NE,51,2.0,5.0,78,0.00,,---,0.00,VWS V14.01,2013-04-17 11:09:00,
2013-04-17 06:14:00,32.4,26.3,30.22,ENE,59,1.0,2.0,78,0.00,,---,0.00,VWS V14.01,2013-04-17 11:14:00,
2013-04-17 06:19:00,32.4,26.3,30.22,ENE,59,2.0,3.0,78,0.00,,---,0.00,VWS V14.01,2013-04-17 11:19:00,
2013-04-17 06:24:00,32.4,26.3,30.22,ENE,68,2.0,5.0,78,0.00,,---,0.00,VWS V14.01,2013-04-17 11:24:00,
2013-04-17 06:29:00,32.4,26.6,30.22,ENE,78,3.0,5.0,79,0.00,,---,0.00,VWS V14.01,2013-04-17 11:29:00,
2013-04-17 06:34:00,32.4,26.6,30.22,East,95,2.0,4.0,79,0.00,,---,0.00,VWS V14.01,2013-04-17 11:34:00,
2013-04-17 06:39:00,32.5,26.4,30.22,East,93,0.0,5.0,78,0.00,,---,0.00,VWS V14.01,2013-04-17 11:39:00,
2013-04-17 06:44:00,32.5,26.4,30.22,East,79,1.0,6.0,78,0.00,,---,0.00,VWS V14.01,2013-04-17 11:44:00,
2013-04-17 06:49:00,32.7,26.6,30.24,East,88,2.0,6.0,78,0.00,,---,0.00,VWS V14.01,2013-04-17 11:49:00,
2013-04-17 06:54:00,32.5,26.4,30.24,ENE,68,4.0,6.0,78,0.00,,---,0.00,VWS V14.01,2013-04-17 11:54:00,
2013-04-17 06:59:00,32.7,26.3,30.24,East,88,3.0,7.0,77,0.00,,---,0.00,VWS V14.01,2013-04-17 11:59:00,
2013-04-17 07:03:00,32.8,26.7,30.24,East,90,1.0,5.0,78,0.00,,---,0.00,VWS V14.01,2013-04-17 12:03:00,
2013-04-17 07:08:00,32.8,26.7,30.24,East,96,2.0,5.0,78,0.00,,---,0.00,VWS V14.01,2013-04-17 12:08:00,
2013-04-17 07:13:00,32.8,26.1,30.24,East,96,2.0,4.0,76,0.00,,---,0.00,VWS V14.01,2013-04-17 12:13:00,
2013-04-17 07:18:00,33.1,26.4,30.27,East,96,2.0,5.0,76,0.00,,---,0.00,VWS V14.01,2013-04-17 12:18:00,
2013-04-17 07:23:00,33.1,26.0,30.27,ESE,104,5.0,5.0,75,0.00,,---,0.00,VWS V14.01,2013-04-17 12:23:00,
2013-04-17 07:28:00,33.4,26.0,30.27,East,97,1.0,5.0,74,0.00,,---,0.00,VWS V14.01,2013-04-17 12:28:00,
2013-04-17 07:33:00,33.5,26.1,30.27,East,86,3.0,6.0,74,0.00,,---,0.00,VWS V14.01,2013-04-17 12:33:00,
2013-04-17 07:38:00,33.5,26.1,30.27,East,90,3.0,8.0,74,0.00,,---,0.00,VWS V14.01,2013-04-17 12:38:00,
2013-04-17 07:43:00,33.5,26.1,30.27,East,93,5.0,7.0,74,0.00,,---,0.00,VWS V14.01,2013-04-17 12:43:00,
2013-04-17 07:48:00,33.4,26.3,30.24,ENE,64,0.0,8.0,75,0.00,,---,0.00,VWS V14.01,2013-04-17 12:48:00,
2013-04-17 07:53:00,33.4,26.7,30.24,East,85,0.0,3.0,76,0.00,,---,0.00,VWS V14.01,2013-04-17 12:53:00,
2013-04-17 07:58:00,33.4,26.7,30.24,SE,130,3.0,6.0,76,0.00,,---,0.00,VWS V14.01,2013-04-17 12:58:00,
2013-04-17 08:03:00,33.4,26.7,30.25,East,83,1.0,3.0,76,0.00,,---,0.00,VWS V14.01,2013-04-17 13:03:00,
2013-04-17 08:08:00,33.5,26.8,30.25,East,95,5.0,6.0,76,0.00,,---,0.00,VWS V14.01,2013-04-17 13:08:00,
2013-04-17 08:13:00,33.5,26.4,30.25,East,88,6.0,8.0,75,0.00,,---,0.00,VWS V14.01,2013-04-17 13:13:00,
2013-04-17 08:18:00,33.8,26.7,30.25,ESE,102,6.0,8.0,75,0.00,,---,0.00,VWS V14.01,2013-04-17 13:18:00,
2013-04-17 08:23:00,33.8,26.7,30.25,East,96,5.0,9.0,75,0.00,,---,0.00,VWS V14.01,2013-04-17 13:23:00,
2013-04-17 08:28:00,33.8,26.7,30.25,East,89,3.0,9.0,75,0.00,,---,0.00,VWS V14.01,2013-04-17 13:28:00,
2013-04-17 08:33:00,33.8,26.7,30.26,East,89,2.0,6.0,75,0.00,,---,0.00,VWS V14.01,2013-04-17 13:33:00,
2013-04-17 08:38:00,33.7,26.6,30.26,East,99,3.0,7.0,75,0.00,,---,0.00,VWS V14.01,2013-04-17 13:38:00,
2013-04-17 08:43:00,33.7,26.6,30.26,ESE,107,2.0,6.0,75,0.00,,---,0.00,VWS V14.01,2013-04-17 13:43:00,
2013-04-17 08:48:00,33.7,26.6,30.27,ESE,113,5.0,6.0,75,0.00,,---,0.00,VWS V14.01,2013-04-17 13:48:00,
2013-04-17 08:53:00,33.7,26.6,30.27,ENE,73,5.0,6.0,75,0.00,,---,0.00,VWS V14.01,2013-04-17 13:53:00,
2013-04-17 08:58:00,33.8,26.7,30.27,East,93,1.0,6.0,75,0.00,,---,0.00,VWS V14.01,2013-04-17 13:58:00,
2013-04-17 09:03:00,34.0,26.6,30.27,East,90,3.0,6.0,74,0.00,,---,0.00,VWS V14.01,2013-04-17 14:03:00,
2013-04-17 09:08:00,34.1,26.7,30.27,East,88,1.0,6.0,74,0.00,,---,0.00,VWS V14.01,2013-04-17 14:08:00,
2013-04-17 09:13:00,34.3,26.9,30.27,East,88,1.0,6.0,74,0.00,,---,0.00,VWS V14.01,2013-04-17 14:13:00,
2013-04-17 09:18:00,34.4,27.0,30.27,East,90,1.0,6.0,74,0.00,,---,0.00,VWS V14.01,2013-04-17 14:18:00,
2013-04-17 09:23:00,34.6,27.2,30.27,NE,56,2.0,6.0,74,0.00,,---,0.00,VWS V14.01,2013-04-17 14:23:00,
2013-04-17 09:28:00,34.6,27.2,30.27,East,99,2.0,6.0,74,0.00,,---,0.00,VWS V14.01,2013-04-17 14:28:00,
2013-04-17 09:33:00,34.7,27.3,30.25,East,95,0.0,6.0,74,0.00,,---,0.00,VWS V14.01,2013-04-17 14:33:00,
2013-04-17 09:38:00,34.9,27.5,30.25,East,95,2.0,6.0,74,0.00,,---,0.00,VWS V14.01,2013-04-17 14:38:00,
2013-04-17 09:43:00,34.9,27.5,30.25,ESE,107,5.0,6.0,74,0.00,,---,0.00,VWS V14.01,2013-04-17 14:43:00,
2013-04-17 09:48:00,34.9,27.5,30.24,East,97,0.0,6.0,74,0.00,,---,0.00,VWS V14.01,2013-04-17 14:48:00,
2013-04-17 09:53:00,34.9,27.8,30.24,East,93,1.0,3.0,75,0.00,,---,0.00,VWS V14.01,2013-04-17 14:53:00,
2013-04-17 09:58:00,34.7,27.3,30.24,East,85,2.0,7.0,74,0.00,,---,0.00,VWS V14.01,2013-04-17 14:58:00,
2013-04-17 10:03:00,34.7,27.0,30.23,East,90,2.0,5.0,73,0.00,,---,0.00,VWS V14.01,2013-04-17 15:03:00,
2013-04-17 10:08:00,34.7,27.3,30.23,East,96,1.0,7.0,74,0.00,,---,0.00,VWS V14.01,2013-04-17 15:08:00,
2013-04-17 10:13:00,34.7,27.0,30.23,ENE,62,3.0,8.0,73,0.00,,---,0.00,VWS V14.01,2013-04-17 15:13:00,
2013-04-17 10:18:00,34.7,27.0,30.22,East,86,2.0,8.0,73,0.00,,---,0.00,VWS V14.01,2013-04-17 15:18:00,
2013-04-17 10:23:00,34.9,27.1,30.22,ESE,107,5.0,8.0,73,0.00,,---,0.00,VWS V14.01,2013-04-17 15:23:00,
2013-04-17 10:28:00,35.0,27.2,30.22,East,100,1.0,8.0,73,0.00,,---,0.00,VWS V14.01,2013-04-17 15:28:00,
2013-04-17 10:33:00,35.0,27.2,30.22,ESE,102,6.0,7.0,73,0.00,,---,0.00,VWS V14.01,2013-04-17 15:33:00,
2013-04-17 10:38:00,35.2,27.4,30.22,East,89,3.0,7.0,73,0.00,,---,0.00,VWS V14.01,2013-04-17 15:38:00,
2013-04-17 10:43:00,35.2,27.1,30.22,ESE,103,2.0,5.0,72,0.00,,---,0.00,VWS V14.01,2013-04-17 15:43:00,
2013-04-17 10:48:00,35.2,27.1,30.22,NE,45,2.0,6.0,72,0.00,,---,0.00,VWS V14.01,2013-04-17 15:48:00,
2013-04-17 10:53:00,35.2,27.1,30.22,East,83,5.0,5.0,72,0.00,,---,0.00,VWS V14.01,2013-04-17 15:53:00,
2013-04-17 10:58:00,35.2,27.1,30.22,East,93,3.0,8.0,72,0.00,,---,0.00,VWS V14.01,2013-04-17 15:58:00,
2013-04-17 11:03:00,35.0,27.2,30.22,ESE,104,3.0,6.0,73,0.00,,---,0.00,VWS V14.01,2013-04-17 16:03:00,
2013-04-17 11:08:00,35.0,27.2,30.22,East,100,5.0,7.0,73,0.00,,---,0.00,VWS V14.01,2013-04-17 16:08:00,
2013-04-17 11:13:00,35.0,27.2,30.22,ESE,107,2.0,6.0,73,0.00,,---,0.00,VWS V14.01,2013-04-17 16:13:00,
2013-04-17 11:18:00,35.0,26.9,30.22,ESE,112,3.0,9.0,72,0.00,,---,0.00,VWS V14.01,2013-04-17 16:18:00,
2013-04-17 11:23:00,35.0,26.9,30.22,East,95,1.0,6.0,72,0.00,,---,0.00,VWS V14.01,2013-04-17 16:23:00,
2013-04-17 11:28:00,35.2,27.1,30.22,ENE,73,3.0,8.0,72,0.00,,---,0.00,VWS V14.01,2013-04-17 16:28:00,
2013-04-17 11:33:00,35.2,27.1,30.21,East,90,2.0,7.0,72,0.00,,---,0.00,VWS V14.01,2013-04-17 16:33:00,
2013-04-17 11:38:00,35.3,27.2,30.21,East,93,7.0,8.0,72,0.00,,---,0.00,VWS V14.01,2013-04-17 16:38:00,
2013-04-17 11:43:00,35.3,27.2,30.21,ESE,103,4.0,7.0,72,0.00,,---,0.00,VWS V14.01,2013-04-17 16:43:00,
2013-04-17 11:48:00,35.3,27.2,30.21,East,97,2.0,10.0,72,0.00,,---,0.00,VWS V14.01,2013-04-17 16:48:00,
2013-04-17 11:53:00,35.3,27.5,30.21,East,86,7.0,7.0,73,0.00,,---,0.00,VWS V14.01,2013-04-17 16:53:00,
2013-04-17 11:58:00,35.3,27.5,30.21,ENE,61,6.0,11.0,73,0.00,,---,0.00,VWS V14.01,2013-04-17 16:58:00,
2013-04-17 12:03:00,35.3,27.2,30.20,ESE,103,7.0,8.0,72,0.00,,---,0.00,VWS V14.01,2013-04-17 17:03:00,
2013-04-17 12:08:00,35.3,27.2,30.20,East,100,4.0,11.0,72,0.00,,---,0.00,VWS V14.01,2013-04-17 17:08:00,
2013-04-17 12:13:00,35.3,27.2,30.20,ESE,119,5.0,11.0,72,0.00,,---,0.00,VWS V14.01,2013-04-17 17:13:00,
2013-04-17 12:18:00,35.5,27.7,30.18,ESE,113,7.0,11.0,73,0.00,,---,0.00,VWS V14.01,2013-04-17 17:18:00,
2013-04-17 12:23:00,35.5,28.0,30.18,East,95,6.0,8.0,74,0.00,,---,0.00,VWS V14.01,2013-04-17 17:23:00,
2013-04-17 12:28:00,35.5,28.0,30.18,East,93,3.0,11.0,74,0.00,,---,0.00,VWS V14.01,2013-04-17 17:28:00,
2013-04-17 12:33:00,35.5,28.0,30.17,East,92,7.0,7.0,74,0.00,,---,0.00,VWS V14.01,2013-04-17 17:33:00,
2013-04-17 12:38:00,35.3,27.5,30.17,East,93,4.0,11.0,73,0.00,,---,0.00,VWS V14.01,2013-04-17 17:38:00,
2013-04-17 12:43:00,35.3,27.9,30.17,ENE,71,3.0,11.0,74,0.00,,---,0.00,VWS V14.01,2013-04-17 17:43:00,
2013-04-17 12:48:00,35.3,27.9,30.16,ENE,68,7.0,12.0,74,0.00,,---,0.00,VWS V14.01,2013-04-17 17:48:00,
2013-04-17 12:53:00,35.3,27.9,30.16,East,96,7.0,7.0,74,0.00,,---,0.00,VWS V14.01,2013-04-17 17:53:00,
2013-04-17 12:58:00,35.3,27.9,30.16,East,96,3.0,11.0,74,0.00,,---,0.00,VWS V14.01,2013-04-17 17:58:00,
2013-04-17 13:03:00,35.5,28.4,30.15,East,100,2.0,6.0,75,0.00,,---,0.00,VWS V14.01,2013-04-17 18:03:00,
2013-04-17 13:08:00,35.5,28.4,30.15,ENE,71,8.0,8.0,75,0.00,,---,0.00,VWS V14.01,2013-04-17 18:08:00,
2013-04-17 13:13:00,35.5,28.0,30.15,ESE,104,5.0,8.0,74,0.00,,---,0.00,VWS V14.01,2013-04-17 18:13:00,
2013-04-17 13:18:00,35.5,28.0,30.15,ENE,78,5.0,11.0,74,0.00,,---,0.00,VWS V14.01,2013-04-17 18:18:00,
2013-04-17 13:22:00,35.6,28.1,30.15,East,95,2.0,7.0,74,0.00,,---,0.00,VWS V14.01,2013-04-17 18:22:00,
2013-04-17 13:27:00,35.8,28.7,30.15,East,89,2.0,8.0,75,0.00,,---,0.00,VWS V14.01,2013-04-17 18:27:00,
2013-04-17 13:32:00,35.8,28.7,30.14,ESE,119,6.0,6.0,75,0.00,,---,0.00,VWS V14.01,2013-04-17 18:32:00,
2013-04-17 13:37:00,35.9,28.4,30.14,East,93,2.0,7.0,74,0.00,,---,0.00,VWS V14.01,2013-04-17 18:37:00,
2013-04-17 13:42:00,36.0,28.9,30.14,ENE,76,5.0,5.0,75,0.00,,---,0.00,VWS V14.01,2013-04-17 18:42:00,
2013-04-17 13:47:00,36.3,28.8,30.13,ENE,76,2.0,8.0,74,0.00,,---,0.00,VWS V14.01,2013-04-17 18:47:00,
2013-04-17 13:52:00,36.5,29.0,30.13,East,100,6.0,8.0,74,0.00,,---,0.00,VWS V14.01,2013-04-17 18:52:00,
2013-04-17 13:57:00,36.5,29.0,30.13,ENE,61,3.0,8.0,74,0.00,,---,0.00,VWS V14.01,2013-04-17 18:57:00,
2013-04-17 14:02:00,36.6,28.8,30.11,ESE,114,6.0,11.0,73,0.00,,---,0.00,VWS V14.01,2013-04-17 19:02:00,
2013-04-17 14:07:00,36.6,28.8,30.11,ENE,78,1.0,11.0,73,0.00,,---,0.00,VWS V14.01,2013-04-17 19:07:00,
2013-04-17 14:12:00,36.8,29.0,30.11,ESE,106,3.0,6.0,73,0.00,,---,0.00,VWS V14.01,2013-04-17 19:12:00,
2013-04-17 14:17:00,36.8,29.0,30.11,East,92,4.0,10.0,73,0.00,,---,0.00,VWS V14.01,2013-04-17 19:17:00,
2013-04-17 14:22:00,36.9,29.1,30.11,East,89,8.0,8.0,73,0.00,,---,0.00,VWS V14.01,2013-04-17 19:22:00,
2013-04-17 14:27:00,36.9,28.7,30.11,East,82,6.0,10.0,72,0.00,,---,0.00,VWS V14.01,2013-04-17 19:27:00,
2013-04-17 14:32:00,36.9,28.7,30.11,East,80,3.0,8.0,72,0.00,,---,0.00,VWS V14.01,2013-04-17 19:32:00,
2013-04-17 14:37:00,37.0,29.2,30.11,East,85,2.0,8.0,73,0.00,,---,0.00,VWS V14.01,2013-04-17 19:37:00,
2013-04-17 14:42:00,37.0,29.2,30.11,East,93,5.0,6.0,73,0.00,,---,0.00,VWS V14.01,2013-04-17 19:42:00,
2013-04-17 14:47:00,37.0,29.5,30.10,East,79,7.0,10.0,74,0.00,,---,0.00,VWS V14.01,2013-04-17 19:47:00,
2013-04-17 14:52:00,36.9,29.4,30.10,ESE,121,5.0,5.0,74,0.00,,---,0.00,VWS V14.01,2013-04-17 19:52:00,
2013-04-17 14:57:00,36.9,29.4,30.10,East,95,2.0,8.0,74,0.00,,---,0.00,VWS V14.01,2013-04-17 19:57:00,
2013-04-17 15:02:00,37.0,29.5,30.10,East,89,7.0,7.0,74,0.00,,---,0.00,VWS V14.01,2013-04-17 20:02:00,
2013-04-17 15:07:00,37.2,29.4,30.10,NE,52,2.0,7.0,73,0.00,,---,0.00,VWS V14.01,2013-04-17 20:07:00,
2013-04-17 15:12:00,37.3,29.8,30.10,NNE,31,2.0,5.0,74,0.00,,---,0.00,VWS V14.01,2013-04-17 20:12:00,
2013-04-17 15:17:00,37.5,29.6,30.09,ENE,64,2.0,5.0,73,0.00,,---,0.00,VWS V14.01,2013-04-17 20:17:00,
2013-04-17 15:22:00,37.5,29.6,30.09,East,83,2.0,4.0,73,0.00,,---,0.00,VWS V14.01,2013-04-17 20:22:00,
2013-04-17 15:27:00,37.6,29.7,30.09,ENE,76,5.0,8.0,73,0.00,,---,0.00,VWS V14.01,2013-04-17 20:27:00,
2013-04-17 15:32:00,37.5,29.3,30.09,ENE,68,5.0,6.0,72,0.00,,---,0.00,VWS V14.01,2013-04-17 20:32:00,
2013-04-17 15:37:00,37.3,29.1,30.09,East,79,4.0,11.0,72,0.00,,---,0.00,VWS V14.01,2013-04-17 20:37:00,
2013-04-17 15:42:00,37.5,29.6,30.09,East,90,2.0,8.0,73,0.00,,---,0.00,VWS V14.01,2013-04-17 20:42:00,
2013-04-17 15:47:00,37.3,29.5,30.07,East,86,6.0,8.0,73,0.00,,---,0.00,VWS V14.01,2013-04-17 20:47:00,
2013-04-17 15:52:00,37.3,29.5,30.07,ENE,73,3.0,6.0,73,0.00,,---,0.00,VWS V14.01,2013-04-17 20:52:00,
2013-04-17 15:57:00,37.3,29.8,30.07,East,79,0.0,8.0,74,0.00,,---,0.00,VWS V14.01,2013-04-17 20:57:00,
2013-04-17 16:02:00,37.2,29.7,30.07,East,86,2.0,6.0,74,0.00,,---,0.00,VWS V14.01,2013-04-17 21:02:00,
2013-04-17 16:07:00,37.0,29.5,30.07,East,85,5.0,8.0,74,0.00,,---,0.00,VWS V14.01,2013-04-17 21:07:00,
2013-04-17 16:12:00,37.0,29.8,30.07,East,99,5.0,7.0,75,0.00,,---,0.00,VWS V14.01,2013-04-17 21:12:00,
2013-04-17 16:17:00,37.0,29.8,30.06,East,80,5.0,7.0,75,0.00,,---,0.00,VWS V14.01,2013-04-17 21:17:00,
2013-04-17 16:22:00,37.0,29.5,30.06,East,92,6.0,8.0,74,0.00,,---,0.00,VWS V14.01,2013-04-17 21:22:00,
2013-04-17 16:27:00,37.0,29.5,30.06,East,79,2.0,8.0,74,0.00,,---,0.00,VWS V14.01,2013-04-17 21:27:00,
2013-04-17 16:32:00,37.0,29.5,30.06,ESE,104,4.0,7.0,74,0.00,,---,0.00,VWS V14.01,2013-04-17 21:32:00,
2013-04-17 16:37:00,36.9,29.7,30.06,East,83,3.0,7.0,75,0.00,,---,0.00,VWS V14.01,2013-04-17 21:37:00,
2013-04-17 16:42:00,36.9,29.7,30.06,NE,35,6.0,6.0,75,0.00,,---,0.00,VWS V14.01,2013-04-17 21:42:00,
2013-04-17 16:47:00,36.8,29.6,30.05,East,88,5.0,7.0,75,0.00,,---,0.00,VWS V14.01,2013-04-17 21:47:00,
2013-04-17 16:52:00,36.8,29.3,30.05,ENE,76,3.0,6.0,74,0.00,,---,0.00,VWS V14.01,2013-04-17 21:52:00,
2013-04-17 16:57:00,36.8,29.3,30.05,ENE,72,2.0,10.0,74,0.00,,---,0.00,VWS V14.01,2013-04-17 21:57:00,
2013-04-17 17:02:00,36.9,29.4,30.05,ESE,106,6.0,6.0,74,0.00,,---,0.00,VWS V14.01,2013-04-17 22:02:00,
2013-04-17 17:07:00,36.9,29.7,30.05,ENE,75,7.0,10.0,75,0.00,,---,0.00,VWS V14.01,2013-04-17 22:07:00,
2013-04-17 17:12:00,36.9,29.4,30.05,East,85,6.0,6.0,74,0.00,,---,0.00,VWS V14.01,2013-04-17 22:12:00,
2013-04-17 17:17:00,36.8,29.6,30.06,East,89,5.0,10.0,75,0.00,,---,0.00,VWS V14.01,2013-04-17 22:17:00,
2013-04-17 17:22:00,36.6,29.8,30.06,East,82,5.0,7.0,76,0.00,,---,0.00,VWS V14.01,2013-04-17 22:22:00,
2013-04-17 17:27:00,36.6,29.4,30.06,East,89,3.0,11.0,75,0.00,,---,0.00,VWS V14.01,2013-04-17 22:27:00,
2013-04-17 17:32:00,36.5,30.0,30.05,East,95,1.0,5.0,77,0.00,,---,0.00,VWS V14.01,2013-04-17 22:32:00,
2013-04-17 17:37:00,36.5,30.3,30.05,East,85,5.0,8.0,78,0.00,,---,0.00,VWS V14.01,2013-04-17 22:37:00,
2013-04-17 17:42:00,36.2,30.9,30.05,East,82,5.0,6.0,81,0.00,,---,0.00,VWS V14.01,2013-04-17 22:42:00,
2013-04-17 17:47:00,36.0,31.0,30.03,ESE,119,6.0,11.0,82,0.00,,---,0.00,VWS V14.01,2013-04-17 22:47:00,
2013-04-17 17:52:00,35.6,31.0,30.03,ESE,102,6.0,10.0,83,0.00,,---,0.00,VWS V14.01,2013-04-17 22:52:00,
2013-04-17 17:57:00,35.5,31.5,30.03,East,83,8.0,10.0,85,0.00,,---,0.00,VWS V14.01,2013-04-17 22:57:00,
2013-04-17 18:02:00,35.2,31.4,30.03,East,93,2.0,6.0,86,0.00,,---,0.00,VWS V14.01,2013-04-17 23:02:00,
2013-04-17 18:07:00,35.0,31.5,30.03,NE,49,10.0,10.0,87,0.00,,---,0.00,VWS V14.01,2013-04-17 23:07:00,
2013-04-17 18:12:00,34.9,31.4,30.03,East,97,3.0,5.0,87,0.00,,---,0.00,VWS V14.01,2013-04-17 23:12:00,
2013-04-17 18:17:00,34.7,31.5,30.03,SE,124,6.0,12.0,88,0.00,,---,0.00,VWS V14.01,2013-04-17 23:17:00,
2013-04-17 18:22:00,34.7,31.5,30.03,East,90,2.0,8.0,88,0.00,,---,0.00,VWS V14.01,2013-04-17 23:22:00,
2013-04-17 18:27:00,34.7,31.8,30.03,ESE,102,5.0,8.0,89,0.00,,---,0.00,VWS V14.01,2013-04-17 23:27:00,
2013-04-17 18:32:00,34.6,31.7,30.03,East,89,3.0,6.0,89,0.00,,---,0.00,VWS V14.01,2013-04-17 23:32:00,
2013-04-17 18:37:00,34.6,32.0,30.03,East,83,7.0,10.0,90,0.01,,---,0.01,VWS V14.01,2013-04-17 23:37:00,
2013-04-17 18:42:00,34.4,31.8,30.03,ENE,76,1.0,7.0,90,0.01,,---,0.01,VWS V14.01,2013-04-17 23:42:00,
2013-04-17 18:47:00,34.3,31.7,30.03,East,88,4.0,7.0,90,0.01,,---,0.01,VWS V14.01,2013-04-17 23:47:00,
2013-04-17 18:52:00,34.3,32.0,30.03,East,85,4.0,5.0,91,0.01,,---,0.01,VWS V14.01,2013-04-17 23:52:00,
2013-04-17 18:57:00,34.1,31.8,30.03,East,88,3.0,8.0,91,0.01,,---,0.01,VWS V14.01,2013-04-17 23:57:00,
2013-04-17 19:02:00,34.1,31.8,30.01,ENE,64,3.0,3.0,91,0.01,,---,0.01,VWS V14.01,2013-04-18 00:02:00,
2013-04-17 19:07:00,34.1,31.8,30.01,East,96,3.0,7.0,91,0.01,,---,0.01,VWS V14.01,2013-04-18 00:07:00,
2013-04-17 19:12:00,34.1,31.8,30.01,ENE,69,3.0,7.0,91,0.01,,---,0.01,VWS V14.01,2013-04-18 00:12:00,
2013-04-17 19:17:00,34.1,31.8,30.01,East,96,5.0,7.0,91,0.01,,---,0.01,VWS V14.01,2013-04-18 00:17:00,
2013-04-17 19:22:00,34.1,31.8,30.01,East,79,2.0,6.0,91,0.01,,---,0.01,VWS V14.01,2013-04-18 00:22:00,
2013-04-17 19:27:00,34.1,31.8,30.01,NE,35,2.0,6.0,91,0.01,,---,0.01,VWS V14.01,2013-04-18 00:27:00,
2013-04-17 19:32:00,34.1,31.8,30.00,ENE,76,2.0,3.0,91,0.01,,---,0.01,VWS V14.01,2013-04-18 00:32:00,
2013-04-17 19:37:00,34.1,31.8,30.00,East,96,1.0,4.0,91,0.01,,---,0.01,VWS V14.01,2013-04-18 00:37:00,
2013-04-17 19:42:00,34.0,31.9,30.00,East,93,2.0,3.0,92,0.00,,---,0.01,VWS V14.01,2013-04-18 00:42:00,
2013-04-17 19:47:00,33.7,31.6,30.01,SE,124,3.0,5.0,92,0.00,,---,0.01,VWS V14.01,2013-04-18 00:47:00,
2013-04-17 19:52:00,33.5,31.7,30.01,ENE,65,5.0,6.0,93,0.00,,---,0.01,VWS V14.01,2013-04-18 00:52:00,
2013-04-17 19:57:00,33.2,31.4,30.01,East,80,2.0,7.0,93,0.00,,---,0.01,VWS V14.01,2013-04-18 00:57:00,
2013-04-17 20:02:00,33.1,31.6,30.00,NNE,28,0.0,2.0,94,0.00,,---,0.01,VWS V14.01,2013-04-18 01:02:00,
2013-04-17 20:07:00,32.8,31.5,30.00,East,95,3.0,5.0,95,0.00,,---,0.01,VWS V14.01,2013-04-18 01:07:00,
2013-04-17 20:12:00,32.8,31.5,30.00,ENE,78,1.0,1.0,95,0.00,,---,0.01,VWS V14.01,2013-04-18 01:12:00,
2013-04-17 20:17:00,32.7,31.7,30.00,East,89,0.0,7.0,96,0.00,,---,0.01,VWS V14.01,2013-04-18 01:17:00,
2013-04-17 20:22:00,32.7,31.7,30.00,East,83,2.0,6.0,96,0.00,,---,0.01,VWS V14.01,2013-04-18 01:22:00,
2013-04-17 20:27:00,32.5,31.5,30.00,East,89,2.0,8.0,96,0.00,,---,0.01,VWS V14.01,2013-04-18 01:27:00,
2013-04-17 20:32:00,32.5,31.7,30.00,East,95,3.0,5.0,97,0.00,,---,0.01,VWS V14.01,2013-04-18 01:32:00,
2013-04-17 20:37:00,32.4,31.6,30.00,ENE,62,3.0,6.0,97,0.00,,---,0.01,VWS V14.01,2013-04-18 01:37:00,
2013-04-17 20:42:00,32.4,31.6,30.00,East,86,2.0,3.0,97,0.00,,---,0.01,VWS V14.01,2013-04-18 01:42:00,
2013-04-17 20:47:00,32.4,31.9,30.01,SE,131,3.0,6.0,98,0.00,,---,0.01,VWS V14.01,2013-04-18 01:47:00,
2013-04-17 20:51:00,32.4,31.9,30.01,East,90,2.0,6.0,98,0.00,,---,0.01,VWS V14.01,2013-04-18 01:51:00,
2013-04-17 20:57:00,32.4,31.9,30.01,North,8,1.0,7.0,98,0.00,,---,0.01,VWS V14.01,2013-04-18 01:57:00,
2013-04-17 21:02:00,32.2,31.7,30.02,SE,126,2.0,6.0,98,0.00,,---,0.01,VWS V14.01,2013-04-18 02:02:00,
2013-04-17 21:07:00,32.2,31.7,30.02,East,89,3.0,6.0,98,0.00,,---,0.01,VWS V14.01,2013-04-18 02:07:00,
2013-04-17 21:12:00,32.2,31.7,30.02,ENE,61,2.0,2.0,98,0.00,,---,0.01,VWS V14.01,2013-04-18 02:12:00,
2013-04-17 21:16:00,32.2,31.7,30.03,East,80,5.0,6.0,98,0.00,,---,0.01,VWS V14.01,2013-04-18 02:16:00,
2013-04-17 21:21:00,32.2,31.7,30.03,NE,51,2.0,2.0,98,0.00,,---,0.01,VWS V14.01,2013-04-18 02:21:00,
2013-04-17 21:27:00,32.2,31.7,30.03,East,90,3.0,6.0,98,0.00,,---,0.01,VWS V14.01,2013-04-18 02:27:00,
2013-04-17 21:32:00,32.2,31.7,30.03,ENE,66,1.0,3.0,98,0.00,,---,0.01,VWS V14.01,2013-04-18 02:32:00,
2013-04-17 21:36:00,32.1,31.6,30.03,North,10,2.0,6.0,98,0.00,,---,0.01,VWS V14.01,2013-04-18 02:36:00,
2013-04-17 21:41:00,32.1,31.6,30.03,NNE,14,6.0,6.0,98,0.00,,---,0.01,VWS V14.01,2013-04-18 02:41:00,
2013-04-17 21:46:00,31.9,31.4,30.01,East,89,5.0,8.0,98,0.00,,---,0.01,VWS V14.01,2013-04-18 02:46:00,
2013-04-17 21:51:00,31.9,31.4,30.01,East,97,6.0,6.0,98,0.00,,---,0.01,VWS V14.01,2013-04-18 02:51:00,
2013-04-17 21:56:00,31.8,31.3,30.01,ESE,114,7.0,7.0,98,0.00,,---,0.01,VWS V14.01,2013-04-18 02:56:00,
2013-04-17 22:01:00,31.8,31.5,29.99,ESE,114,2.0,3.0,99,0.00,,---,0.01,VWS V14.01,2013-04-18 03:01:00,
2013-04-17 22:07:00,31.8,31.5,29.99,ENE,69,2.0,7.0,99,0.00,,---,0.01,VWS V14.01,2013-04-18 03:07:00,
2013-04-17 22:12:00,31.8,31.5,29.99,NNE,20,6.0,6.0,99,0.00,,---,0.01,VWS V14.01,2013-04-18 03:12:00,
2013-04-17 22:17:00,31.8,31.5,29.97,East,97,5.0,10.0,99,0.00,,---,0.01,VWS V14.01,2013-04-18 03:17:00,
2013-04-17 22:22:00,31.6,31.4,29.97,North,11,1.0,2.0,99,0.00,,---,0.01,VWS V14.01,2013-04-18 03:22:00,
2013-04-17 22:27:00,31.6,31.4,29.97,ESE,114,0.0,5.0,99,0.00,,---,0.01,VWS V14.01,2013-04-18 03:27:00,
2013-04-17 22:31:00,31.6,31.4,29.98,SE,136,2.0,3.0,99,0.00,,---,0.01,VWS V14.01,2013-04-18 03:31:00,
2013-04-17 22:37:00,31.5,31.2,29.98,ESE,119,2.0,7.0,99,0.00,,---,0.01,VWS V14.01,2013-04-18 03:37:00,
2013-04-17 22:41:00,31.5,31.2,29.98,East,83,1.0,5.0,99,0.00,,---,0.01,VWS V14.01,2013-04-18 03:41:00,
2013-04-17 22:46:00,31.3,31.0,29.98,ENE,73,6.0,7.0,99,0.00,,---,0.01,VWS V14.01,2013-04-18 03:46:00,
2013-04-17 22:51:00,31.3,31.0,29.98,ENE,78,1.0,4.0,99,0.00,,---,0.01,VWS V14.01,2013-04-18 03:51:00,
2013-04-17 22:56:00,31.3,31.0,29.98,ENE,68,4.0,7.0,99,0.00,,---,0.01,VWS V14.01,2013-04-18 03:56:00,
2013-04-17 23:01:00,31.3,31.0,29.97,NNE,16,2.0,7.0,99,0.00,,---,0.01,VWS V14.01,2013-04-18 04:01:00,
2013-04-17 23:06:00,31.2,31.0,29.97,SSE,151,2.0,8.0,99,0.00,,---,0.01,VWS V14.01,2013-04-18 04:06:00,
2013-04-17 23:11:00,31.2,31.0,29.97,ESE,110,2.0,8.0,99,0.00,,---,0.01,VWS V14.01,2013-04-18 04:11:00,
2013-04-17 23:16:00,31.2,31.0,29.97,East,85,1.0,7.0,99,0.00,,---,0.01,VWS V14.01,2013-04-18 04:16:00,
2013-04-17 23:21:00,31.2,31.0,29.97,East,88,3.0,7.0,99,0.00,,---,0.01,VWS V14.01,2013-04-18 04:21:00,
2013-04-17 23:26:00,31.0,30.8,29.97,ENE,64,2.0,8.0,99,0.00,,---,0.01,VWS V14.01,2013-04-18 04:26:00,
2013-04-17 23:31:00,31.0,30.8,29.97,NE,49,1.0,8.0,99,0.00,,---,0.01,VWS V14.01,2013-04-18 04:31:00,
2013-04-17 23:36:00,31.0,30.8,29.97,ESE,117,2.0,9.0,99,0.00,,---,0.01,VWS V14.01,2013-04-18 04:36:00,
2013-04-17 23:41:00,31.0,30.8,29.97,East,82,1.0,1.0,99,0.00,,---,0.01,VWS V14.01,2013-04-18 04:41:00,
2013-04-17 23:46:00,31.0,30.8,29.98,North,6,5.0,5.0,99,0.00,,---,0.01,VWS V14.01,2013-04-18 04:46:00,
2013-04-17 23:51:00,30.9,30.6,29.98,SSE,154,1.0,7.0,99,0.00,,---,0.01,VWS V14.01,2013-04-18 04:51:00,
2013-04-17 23:56:00,30.9,30.6,29.98,NE,56,0.0,4.0,99,0.00,,---,0.01,VWS V14.01,2013-04-18 04:56:00,